This is the latest recevied weather packets stored in our database for station/object PA3BWK. If no packets are shown the sender has not sent any weather packets the latest 10 day(s).
| Time | Temp. | Humidity | Pressure | Rain* | Wind** | Luminosity | Snow |
|---|---|---|---|---|---|---|---|
| 1777477623 | 19.44° C | 29% | 1026.5 hPa | 0 mm | - | 434 W/m² | - |
| 1777477563 | 19.44° C | 29% | 1026.4 hPa | 0 mm | - | 434 W/m² | - |
| 1777477502 | 19.44° C | 29% | 1026.5 hPa | 0 mm | - | 434 W/m² | - |
| 1777477443 | 19.44° C | 29% | 1026.5 hPa | 0 mm | - | 436 W/m² | - |
| 1777477382 | 19.44° C | 31% | 1026.5 hPa | 0 mm | - | 438 W/m² | - |
| 1777477322 | 19.44° C | 28% | 1026.5 hPa | 0 mm | - | 438 W/m² | - |
| 1777477262 | 19.44° C | 30% | 1026.5 hPa | 0 mm | - | 438 W/m² | - |
| 1777477212 | 19.44° C | 30% | 1026.5 hPa | 0 mm | - | 440 W/m² | - |
| 1777477153 | 19.44° C | 29% | 1026.5 hPa | 0 mm | - | 438 W/m² | - |
| 1777477082 | 19.44° C | 28% | 1026.5 hPa | 0 mm | - | 438 W/m² | - |
| 1777477022 | 19.44° C | 28% | 1026.5 hPa | 0 mm | - | 440 W/m² | - |
| 1777476963 | 19.44° C | 29% | 1026.5 hPa | 0 mm | - | 441 W/m² | - |
| 1777476903 | 19.44° C | 28% | 1026.5 hPa | 0 mm | - | 440 W/m² | - |
| 1777476843 | 19.44° C | 29% | 1026.5 hPa | 0 mm | - | 440 W/m² | - |
| 1777476783 | 19.44° C | 28% | 1026.5 hPa | 0 mm | - | 440 W/m² | - |
| 1777476723 | 19.44° C | 28% | 1026.5 hPa | 0 mm | - | 440 W/m² | - |
| 1777476664 | 19.44° C | 28% | 1026.5 hPa | 0 mm | - | 438 W/m² | - |
| 1777476602 | 19.44° C | 27% | 1026.6 hPa | 0 mm | - | 440 W/m² | - |
| 1777476542 | 19.44° C | 28% | 1026.5 hPa | 0 mm | - | 438 W/m² | - |
| 1777476482 | 19.44° C | 29% | 1026.6 hPa | 0 mm | - | 438 W/m² | - |
| 1777476424 | 19.44° C | 27% | 1026.5 hPa | 0 mm | - | 438 W/m² | - |
| 1777476363 | 19.44° C | 29% | 1026.7 hPa | 0 mm | - | 438 W/m² | - |
| 1777476304 | 19.44° C | 29% | 1026.6 hPa | 0 mm | - | 434 W/m² | - |
| 1777476244 | 19.44° C | 31% | 1026.6 hPa | 0 mm | - | 436 W/m² | - |
| 1777476183 | 18.89° C | 28% | 1026.6 hPa | 0 mm | - | 434 W/m² | - |
* Rain latest hour (hover to see other rain measurements)
** Current wind speed in m/s (hover to see current wind gust speed)